Terminal Aerodrome Forecast
Issued by NWS

Home | Current Version | Previous Version | Text Only | Print | Product List | Glossary On
Versions: 1 2 3 4 5 6 7 8 9 10 11 12 13 14 15 16 17 18 19 20 21 22 23 24 25 26 27 28 29 30
000
FTUS43 KGLD 211434 AAA
TAFMCK
TAF AMD
KMCK 211434Z 2115/2212 VRB05KT P6SM SCT015
      TEMPO 2116/2117 BKN015
     FM211700 17015G23KT P6SM SCT025
     FM220000 14009KT P6SM FEW150
     FM220800 17006KT 4SM BR SCT007=

USA.gov is the U.S. government's official web portal to all federal, state and local government web resources and services.